contact:dominique.lefevre@mio.osupytheas.fr, maurice.libes@osupytheas.fr, didier.mallarino@osupytheas.fr
Project:EMSO http://www.emso-fr.org/EMSO-France
Depth: 2436.0 m
Title:EMSO Ligure Ouest : Data MII capteur MICROCAT
DateTime_Computer,Latitude,Longitude,Temperature,Conductivity,Pressure,DateTime_Instrument
DateTime_Computer,Latitude,Longitude,degC,S m-1,dbar,DateTime_Instrument
2020-07-20T00:00:34Z,42.805,6.029,13.3060,4.60002,2470.063,2020-7-20T02:01:21Z
2020-07-20T00:03:37Z,42.805,6.029,13.3032,4.60021,2470.077,2020-7-20T02:04:24Z
2020-07-20T00:06:40Z,42.805,6.029,13.3026,4.60004,2470.087,2020-7-20T02:07:27Z
2020-07-20T00:09:43Z,42.805,6.029,13.3031,4.60004,2470.11,2020-7-20T02:10:30Z
2020-07-20T00:12:47Z,42.805,6.029,13.2995,4.60008,2470.1,2020-7-20T02:13:34Z
2020-07-20T00:15:50Z,42.805,6.029,13.3019,4.60009,2470.087,2020-7-20T02:16:37Z
2020-07-20T00:18:53Z,42.805,6.029,13.3003,4.60010,2470.063,2020-7-20T02:19:40Z
2020-07-20T00:21:56Z,42.805,6.029,13.3020,4.60014,2470.087,2020-7-20T02:22:43Z
2020-07-20T00:24:59Z,42.805,6.029,13.3021,4.60001,2470.1,2020-7-20T02:25:47Z
2020-07-20T00:28:03Z,42.805,6.029,13.3014,4.60025,2470.077,2020-7-20T02:28:50Z
2020-07-20T00:31:06Z,42.805,6.029,13.3037,4.60003,2470.087,2020-7-20T02:31:53Z
2020-07-20T00:34:09Z,42.805,6.029,13.2994,4.60013,2470.077,2020-7-20T02:34:56Z
2020-07-20T00:37:12Z,42.805,6.029,13.2991,4.60049,2470.063,2020-7-20T02:38:00Z
2020-07-20T00:40:16Z,42.805,6.029,13.3021,4.60022,2470.1,2020-7-20T02:41:03Z
2020-07-20T00:43:19Z,42.805,6.029,13.3019,4.60049,2470.04,2020-7-20T02:44:06Z
2020-07-20T00:46:22Z,42.805,6.029,13.3018,4.60056,2470.053,2020-7-20T02:47:09Z
2020-07-20T00:49:25Z,42.805,6.029,13.3010,4.60061,2470.04,2020-7-20T02:50:13Z
2020-07-20T00:52:29Z,42.805,6.029,13.3027,4.60066,2470.1,2020-7-20T02:53:16Z
2020-07-20T00:55:32Z,42.805,6.029,13.3083,4.60031,2470.087,2020-7-20T02:56:19Z
2020-07-20T00:58:35Z,42.805,6.029,13.3046,4.60015,2470.053,2020-7-20T02:59:22Z
2020-07-20T01:01:39Z,42.805,6.029,13.3006,4.60065,2470.087,2020-7-20T03:02:26Z
2020-07-20T01:04:42Z,42.805,6.029,13.3028,4.60055,2470.077,2020-7-20T03:05:29Z
2020-07-20T01:07:45Z,42.805,6.029,13.3035,4.60017,2470.077,2020-7-20T03:08:32Z
2020-07-20T01:10:48Z,42.805,6.029,13.3014,4.60046,2470.077,2020-7-20T03:11:35Z
2020-07-20T01:13:51Z,42.805,6.029,13.3026,4.60021,2470.053,2020-7-20T03:14:39Z
2020-07-20T01:16:55Z,42.805,6.029,13.3055,4.60003,2470.03,2020-7-20T03:17:42Z
2020-07-20T01:19:58Z,42.805,6.029,13.2996,4.60011,2470.077,2020-7-20T03:20:45Z
2020-07-20T01:23:02Z,42.805,6.029,13.3043,4.60052,2470.063,2020-7-20T03:23:49Z
2020-07-20T01:26:05Z,42.805,6.029,13.3045,4.60081,2470.053,2020-7-20T03:26:52Z
2020-07-20T01:29:08Z,42.805,6.029,13.3040,4.60063,2470.1,2020-7-20T03:29:55Z
2020-07-20T01:32:11Z,42.805,6.029,13.3054,4.60032,2470.063,2020-7-20T03:32:59Z
2020-07-20T01:35:15Z,42.805,6.029,13.3006,4.60003,2470.077,2020-7-20T03:36:02Z
2020-07-20T01:38:18Z,42.805,6.029,13.3036,4.60042,2470.04,2020-7-20T03:39:05Z
2020-07-20T01:41:21Z,42.805,6.029,13.3051,4.60025,2470.053,2020-7-20T03:42:08Z
2020-07-20T01:44:24Z,42.805,6.029,13.3057,4.60052,2470.063,2020-7-20T03:45:11Z
2020-07-20T01:47:28Z,42.805,6.029,13.3063,4.60013,2470.03,2020-7-20T03:48:15Z
2020-07-20T01:50:31Z,42.805,6.029,13.3049,4.60016,2470.053,2020-7-20T03:51:18Z
2020-07-20T01:53:34Z,42.805,6.029,13.3049,4.60055,2470.063,2020-7-20T03:54:21Z
2020-07-20T01:56:37Z,42.805,6.029,13.3073,4.60039,2470.053,2020-7-20T03:57:25Z
2020-07-20T01:59:41Z,42.805,6.029,13.3079,4.60059,2470.077,2020-7-20T04:00:28Z
2020-07-20T02:02:44Z,42.805,6.029,13.3063,4.60008,2470.063,2020-7-20T04:03:31Z
2020-07-20T02:05:47Z,42.805,6.029,13.3071,4.60019,2470.04,2020-7-20T04:06:34Z
2020-07-20T02:08:51Z,42.805,6.029,13.3073,4.60074,2470.017,2020-7-20T04:09:38Z
2020-07-20T02:11:54Z,42.805,6.029,13.3049,4.60039,2470.053,2020-7-20T04:12:41Z
2020-07-20T02:14:57Z,42.805,6.029,13.3024,4.60056,2470.017,2020-7-20T04:15:44Z
2020-07-20T02:18:00Z,42.805,6.029,13.3002,4.60024,2470.053,2020-7-20T04:18:47Z
2020-07-20T02:21:03Z,42.805,6.029,13.3009,4.60073,2470.04,2020-7-20T04:21:51Z
2020-07-20T02:24:07Z,42.805,6.029,13.3039,4.60033,2470.063,2020-7-20T04:24:54Z
2020-07-20T02:27:10Z,42.805,6.029,13.3020,4.60062,2470.053,2020-7-20T04:27:57Z
2020-07-20T02:30:13Z,42.805,6.029,13.3039,4.60050,2470.017,2020-7-20T04:31:00Z
2020-07-20T02:33:16Z,42.805,6.029,13.3043,4.60045,2470.077,2020-7-20T04:34:04Z
2020-07-20T02:36:20Z,42.805,6.029,13.3029,4.60067,2470.138,2020-7-20T04:37:07Z
2020-07-20T02:39:23Z,42.805,6.029,13.3026,4.60077,2470.077,2020-7-20T04:40:10Z
2020-07-20T02:42:26Z,42.805,6.029,13.3023,4.60084,2470.03,2020-7-20T04:43:13Z
2020-07-20T02:45:29Z,42.805,6.029,13.2999,4.60074,2470.077,2020-7-20T04:46:17Z
2020-07-20T02:48:33Z,42.805,6.029,13.3004,4.60093,2470.063,2020-7-20T04:49:20Z
2020-07-20T02:51:36Z,42.805,6.029,13.3011,4.60074,2470.1,2020-7-20T04:52:23Z
2020-07-20T02:54:39Z,42.805,6.029,13.3002,4.60032,2470.087,2020-7-20T04:55:26Z
2020-07-20T02:57:42Z,42.805,6.029,13.3002,4.60057,2470.04,2020-7-20T04:58:30Z
2020-07-20T03:00:46Z,42.805,6.029,13.3001,4.60080,2470.063,2020-7-20T05:01:33Z
2020-07-20T03:03:49Z,42.805,6.029,13.3001,4.60072,2470.063,2020-7-20T05:04:36Z
2020-07-20T03:06:52Z,42.805,6.029,13.3003,4.60075,2470.053,2020-7-20T05:07:39Z
2020-07-20T03:09:56Z,42.805,6.029,13.2998,4.60084,2470.077,2020-7-20T05:10:43Z
2020-07-20T03:12:59Z,42.805,6.029,13.2999,4.60062,2470.1,2020-7-20T05:13:46Z
2020-07-20T03:16:02Z,42.805,6.029,13.3009,4.60068,2470.077,2020-7-20T05:16:49Z
2020-07-20T03:19:05Z,42.805,6.029,13.3009,4.60086,2470.063,2020-7-20T05:19:52Z
2020-07-20T03:22:09Z,42.805,6.029,13.3012,4.60054,2470.053,2020-7-20T05:22:56Z
2020-07-20T03:25:12Z,42.805,6.029,13.2992,4.60062,2470.087,2020-7-20T05:25:59Z
2020-07-20T03:28:15Z,42.805,6.029,13.3007,4.60052,2470.087,2020-7-20T05:29:02Z
2020-07-20T03:31:18Z,42.805,6.029,13.3014,4.60066,2470.087,2020-7-20T05:32:05Z
2020-07-20T03:34:21Z,42.805,6.029,13.2993,4.60069,2470.087,2020-7-20T05:35:09Z
2020-07-20T03:37:25Z,42.805,6.029,13.3014,4.60079,2470.063,2020-7-20T05:38:12Z
2020-07-20T03:40:28Z,42.805,6.029,13.3005,4.60069,2470.11,2020-7-20T05:41:15Z
2020-07-20T03:43:31Z,42.805,6.029,13.3007,4.60081,2470.073,2020-7-20T05:44:18Z
2020-07-20T03:46:34Z,42.805,6.029,13.2993,4.60074,2470.11,2020-7-20T05:47:21Z
2020-07-20T03:49:38Z,42.805,6.029,13.2996,4.60064,2470.124,2020-7-20T05:50:25Z
2020-07-20T03:52:41Z,42.805,6.029,13.3006,4.60060,2470.087,2020-7-20T05:53:28Z
2020-07-20T03:55:44Z,42.805,6.029,13.3009,4.60080,2470.133,2020-7-20T05:56:31Z
2020-07-20T03:58:47Z,42.805,6.029,13.2994,4.60074,2470.11,2020-7-20T05:59:35Z
2020-07-20T04:01:51Z,42.805,6.029,13.3002,4.60063,2470.124,2020-7-20T06:02:38Z
2020-07-20T04:04:54Z,42.805,6.029,13.3022,4.60081,2470.147,2020-7-20T06:05:41Z
2020-07-20T04:07:57Z,42.805,6.029,13.2990,4.60044,2470.11,2020-7-20T06:08:44Z
2020-07-20T04:11:00Z,42.805,6.029,13.2991,4.60087,2470.124,2020-7-20T06:11:47Z
2020-07-20T04:14:04Z,42.805,6.029,13.3000,4.60062,2470.133,2020-7-20T06:14:51Z
2020-07-20T04:17:07Z,42.805,6.029,13.3002,4.60052,2470.147,2020-7-20T06:17:54Z
2020-07-20T04:20:10Z,42.805,6.029,13.3000,4.60073,2470.11,2020-7-20T06:20:57Z
2020-07-20T04:23:13Z,42.805,6.029,13.2991,4.60050,2470.147,2020-7-20T06:24:00Z
2020-07-20T04:26:17Z,42.805,6.029,13.2995,4.60055,2470.133,2020-7-20T06:27:04Z
2020-07-20T04:29:20Z,42.805,6.029,13.2990,4.60067,2470.11,2020-7-20T06:30:07Z
2020-07-20T04:32:23Z,42.805,6.029,13.3003,4.60064,2470.147,2020-7-20T06:33:10Z
2020-07-20T04:35:26Z,42.805,6.029,13.3006,4.60067,2470.11,2020-7-20T06:36:14Z
2020-07-20T04:38:30Z,42.805,6.029,13.3000,4.60064,2470.133,2020-7-20T06:39:17Z
2020-07-20T04:41:33Z,42.805,6.029,13.3001,4.60061,2470.147,2020-7-20T06:42:20Z
2020-07-20T04:44:36Z,42.805,6.029,13.3009,4.60056,2470.133,2020-7-20T06:45:23Z
2020-07-20T04:47:39Z,42.805,6.029,13.2994,4.60079,2470.147,2020-7-20T06:48:27Z
2020-07-20T04:50:43Z,42.805,6.029,13.3013,4.60059,2470.171,2020-7-20T06:51:30Z
2020-07-20T04:53:46Z,42.805,6.029,13.2990,4.60055,2470.18,2020-7-20T06:54:33Z
2020-07-20T04:56:49Z,42.805,6.029,13.3011,4.60057,2470.171,2020-7-20T06:57:36Z
2020-07-20T04:59:52Z,42.805,6.029,13.2998,4.60057,2470.156,2020-7-20T07:00:39Z
2020-07-20T05:02:56Z,42.805,6.029,13.2994,4.60050,2470.171,2020-7-20T07:03:43Z
2020-07-20T05:05:59Z,42.805,6.029,13.2999,4.60047,2470.133,2020-7-20T07:06:46Z
2020-07-20T05:09:02Z,42.805,6.029,13.3000,4.60052,2470.147,2020-7-20T07:09:49Z
2020-07-20T05:12:05Z,42.805,6.029,13.2990,4.60055,2470.133,2020-7-20T07:12:52Z
2020-07-20T05:15:09Z,42.805,6.029,13.2999,4.60045,2470.171,2020-7-20T07:15:56Z
2020-07-20T05:18:12Z,42.805,6.029,13.2998,4.60039,2470.11,2020-7-20T07:18:59Z
2020-07-20T05:21:15Z,42.805,6.029,13.2986,4.60037,2470.133,2020-7-20T07:22:02Z
2020-07-20T05:24:18Z,42.805,6.029,13.2989,4.60041,2470.194,2020-7-20T07:25:05Z
2020-07-20T05:27:21Z,42.805,6.029,13.2994,4.60047,2470.171,2020-7-20T07:28:09Z
2020-07-20T05:30:25Z,42.805,6.029,13.2994,4.60038,2470.18,2020-7-20T07:31:12Z
2020-07-20T05:33:28Z,42.805,6.029,13.3001,4.60027,2470.156,2020-7-20T07:34:15Z
2020-07-20T05:36:31Z,42.805,6.029,13.2990,4.60035,2470.194,2020-7-20T07:37:18Z
2020-07-20T05:39:34Z,42.805,6.029,13.2993,4.60033,2470.133,2020-7-20T07:40:22Z
2020-07-20T05:42:38Z,42.805,6.029,13.2991,4.60022,2470.194,2020-7-20T07:43:25Z
2020-07-20T05:45:41Z,42.805,6.029,13.2991,4.60016,2470.18,2020-7-20T07:46:28Z
2020-07-20T05:48:44Z,42.805,6.029,13.2998,4.60024,2470.156,2020-7-20T07:49:31Z
2020-07-20T05:51:47Z,42.805,6.029,13.2979,4.60014,2470.18,2020-7-20T07:52:34Z
2020-07-20T05:54:51Z,42.805,6.029,13.2984,4.60016,2470.156,2020-7-20T07:55:38Z
2020-07-20T05:57:54Z,42.805,6.029,13.2986,4.60021,2470.156,2020-7-20T07:58:41Z
2020-07-20T06:00:57Z,42.805,6.029,13.2991,4.60027,2470.18,2020-7-20T08:01:44Z
2020-07-20T06:04:00Z,42.805,6.029,13.2993,4.60052,2470.217,2020-7-20T08:04:47Z
2020-07-20T06:07:03Z,42.805,6.029,13.2996,4.60045,2470.194,2020-7-20T08:07:51Z
2020-07-20T06:10:07Z,42.805,6.029,13.2995,4.60034,2470.18,2020-7-20T08:10:54Z
2020-07-20T06:13:10Z,42.805,6.029,13.3004,4.60024,2470.217,2020-7-20T08:13:57Z
2020-07-20T06:16:13Z,42.805,6.029,13.2992,4.60022,2470.156,2020-7-20T08:17:00Z
2020-07-20T06:19:16Z,42.805,6.029,13.3005,4.60041,2470.171,2020-7-20T08:20:04Z
2020-07-20T06:22:20Z,42.805,6.029,13.2993,4.60026,2470.217,2020-7-20T08:23:07Z
2020-07-20T06:25:23Z,42.805,6.029,13.2996,4.60017,2470.18,2020-7-20T08:26:10Z
2020-07-20T06:28:26Z,42.805,6.029,13.2993,4.60016,2470.194,2020-7-20T08:29:13Z
2020-07-20T06:31:29Z,42.805,6.029,13.2993,4.60009,2470.24,2020-7-20T08:32:16Z
2020-07-20T06:34:33Z,42.805,6.029,13.2992,4.60016,2470.194,2020-7-20T08:35:20Z
2020-07-20T06:37:36Z,42.805,6.029,13.2990,4.60014,2470.217,2020-7-20T08:38:23Z
2020-07-20T06:40:39Z,42.805,6.029,13.2998,4.60034,2470.18,2020-7-20T08:41:27Z
2020-07-20T06:43:43Z,42.805,6.029,13.2990,4.60033,2470.203,2020-7-20T08:44:30Z
2020-07-20T06:46:46Z,42.805,6.029,13.2980,4.60045,2470.217,2020-7-20T08:47:33Z
2020-07-20T06:49:49Z,42.805,6.029,13.2984,4.59998,2470.217,2020-7-20T08:50:37Z
2020-07-20T06:52:53Z,42.805,6.029,13.2991,4.60014,2470.18,2020-7-20T08:53:40Z
2020-07-20T06:55:56Z,42.805,6.029,13.2991,4.60006,2470.194,2020-7-20T08:56:43Z
2020-07-20T06:58:59Z,42.805,6.029,13.2985,4.60017,2470.171,2020-7-20T08:59:46Z
2020-07-20T07:02:03Z,42.805,6.029,13.2991,4.60041,2470.194,2020-7-20T09:02:50Z
2020-07-20T07:05:06Z,42.805,6.029,13.2999,4.60031,2470.203,2020-7-20T09:05:53Z
2020-07-20T07:08:09Z,42.805,6.029,13.2994,4.60017,2470.18,2020-7-20T09:08:56Z
2020-07-20T07:11:12Z,42.805,6.029,13.2989,4.60037,2470.18,2020-7-20T09:11:59Z
2020-07-20T07:14:16Z,42.805,6.029,13.2986,4.60022,2470.18,2020-7-20T09:15:03Z
2020-07-20T07:17:19Z,42.805,6.029,13.2987,4.60015,2470.194,2020-7-20T09:18:06Z
2020-07-20T07:20:22Z,42.805,6.029,13.2988,4.60019,2470.18,2020-7-20T09:21:09Z
2020-07-20T07:23:25Z,42.805,6.029,13.2987,4.60008,2470.194,2020-7-20T09:24:12Z
2020-07-20T07:26:28Z,42.805,6.029,13.2982,4.60015,2470.156,2020-7-20T09:27:16Z
2020-07-20T07:29:32Z,42.805,6.029,13.2983,4.60022,2470.217,2020-7-20T09:30:19Z
2020-07-20T07:32:35Z,42.805,6.029,13.2987,4.60006,2470.203,2020-7-20T09:33:22Z
2020-07-20T07:35:38Z,42.805,6.029,13.2990,4.60006,2470.18,2020-7-20T09:36:25Z
2020-07-20T07:38:42Z,42.805,6.029,13.2983,4.60013,2470.171,2020-7-20T09:39:29Z
2020-07-20T07:41:45Z,42.805,6.029,13.2991,4.60016,2470.18,2020-7-20T09:42:32Z
2020-07-20T07:44:48Z,42.805,6.029,13.2996,4.60027,2470.156,2020-7-20T09:45:35Z
2020-07-20T07:47:51Z,42.805,6.029,13.2996,4.60014,2470.18,2020-7-20T09:48:38Z
2020-07-20T07:50:55Z,42.805,6.029,13.2985,4.60026,2470.194,2020-7-20T09:51:42Z
2020-07-20T07:53:58Z,42.805,6.029,13.2994,4.60016,2470.156,2020-7-20T09:54:45Z
2020-07-20T07:57:01Z,42.805,6.029,13.2987,4.60023,2470.194,2020-7-20T09:57:48Z
2020-07-20T08:00:04Z,42.805,6.029,13.2993,4.60018,2470.171,2020-7-20T10:00:52Z
2020-07-20T08:03:08Z,42.805,6.029,13.2997,4.60011,2470.203,2020-7-20T10:03:55Z
2020-07-20T08:06:11Z,42.805,6.029,13.3012,4.60052,2470.171,2020-7-20T10:06:58Z
2020-07-20T08:09:14Z,42.805,6.029,13.3000,4.60039,2470.194,2020-7-20T10:10:01Z
2020-07-20T08:12:17Z,42.805,6.029,13.3006,4.60036,2470.18,2020-7-20T10:13:04Z
2020-07-20T08:15:21Z,42.805,6.029,13.2996,4.60031,2470.194,2020-7-20T10:16:08Z
2020-07-20T08:18:24Z,42.805,6.029,13.3002,4.60042,2470.194,2020-7-20T10:19:11Z
2020-07-20T08:21:27Z,42.805,6.029,13.3006,4.60038,2470.147,2020-7-20T10:22:14Z
2020-07-20T08:24:30Z,42.805,6.029,13.3018,4.60045,2470.171,2020-7-20T10:25:17Z
2020-07-20T08:27:34Z,42.805,6.029,13.2996,4.60025,2470.156,2020-7-20T10:28:21Z
2020-07-20T08:30:37Z,42.805,6.029,13.3009,4.60005,2470.156,2020-7-20T10:31:24Z
2020-07-20T08:33:40Z,42.805,6.029,13.2991,4.60008,2470.171,2020-7-20T10:34:27Z
2020-07-20T08:36:43Z,42.805,6.029,13.2990,4.60016,2470.171,2020-7-20T10:37:30Z
2020-07-20T08:39:47Z,42.805,6.029,13.2993,4.60044,2470.147,2020-7-20T10:40:34Z
2020-07-20T08:42:50Z,42.805,6.029,13.2995,4.60039,2470.156,2020-7-20T10:43:37Z
2020-07-20T08:45:53Z,42.805,6.029,13.3026,4.60049,2470.147,2020-7-20T10:46:40Z
2020-07-20T08:48:56Z,42.805,6.029,13.3022,4.60049,2470.156,2020-7-20T10:49:44Z
2020-07-20T08:52:00Z,42.805,6.029,13.3028,4.60039,2470.133,2020-7-20T10:52:47Z
2020-07-20T08:55:03Z,42.805,6.029,13.2990,4.60067,2470.11,2020-7-20T10:55:50Z
2020-07-20T08:58:06Z,42.805,6.029,13.2989,4.60061,2470.147,2020-7-20T10:58:53Z
2020-07-20T09:01:09Z,42.805,6.029,13.3000,4.60041,2470.124,2020-7-20T11:01:57Z
2020-07-20T09:04:13Z,42.805,6.029,13.2987,4.60014,2470.133,2020-7-20T11:05:00Z
2020-07-20T09:07:16Z,42.805,6.029,13.2983,4.60029,2470.124,2020-7-20T11:08:03Z
2020-07-20T09:10:19Z,42.805,6.029,13.2998,4.60039,2470.133,2020-7-20T11:11:06Z
2020-07-20T09:13:22Z,42.805,6.029,13.3008,4.60035,2470.133,2020-7-20T11:14:10Z
2020-07-20T09:16:26Z,42.805,6.029,13.3019,4.60032,2470.133,2020-7-20T11:17:13Z
2020-07-20T09:19:29Z,42.805,6.029,13.3003,4.60044,2470.11,2020-7-20T11:20:16Z
2020-07-20T09:22:32Z,42.805,6.029,13.2989,4.60021,2470.1,2020-7-20T11:23:19Z
2020-07-20T09:25:35Z,42.805,6.029,13.2999,4.60031,2470.147,2020-7-20T11:26:22Z
2020-07-20T09:28:39Z,42.805,6.029,13.2991,4.60016,2470.133,2020-7-20T11:29:26Z
2020-07-20T09:31:42Z,42.805,6.029,13.2993,4.60019,2470.147,2020-7-20T11:32:29Z
2020-07-20T09:34:45Z,42.805,6.029,13.3004,4.60014,2470.1,2020-7-20T11:35:32Z
2020-07-20T09:37:48Z,42.805,6.029,13.2994,4.60031,2470.087,2020-7-20T11:38:35Z
2020-07-20T09:40:52Z,42.805,6.029,13.3003,4.60054,2470.11,2020-7-20T11:41:39Z
2020-07-20T09:43:55Z,42.805,6.029,13.2998,4.60055,2470.11,2020-7-20T11:44:42Z
2020-07-20T09:46:58Z,42.805,6.029,13.3023,4.60064,2470.096,2020-7-20T11:47:45Z
2020-07-20T09:50:01Z,42.805,6.029,13.3021,4.60029,2470.1,2020-7-20T11:50:48Z
2020-07-20T09:53:04Z,42.805,6.029,13.3013,4.60058,2470.11,2020-7-20T11:53:52Z
2020-07-20T09:56:08Z,42.805,6.029,13.3014,4.60041,2470.1,2020-7-20T11:56:55Z
2020-07-20T09:59:11Z,42.805,6.029,13.3020,4.60019,2470.11,2020-7-20T11:59:58Z
2020-07-20T10:02:14Z,42.805,6.029,13.2996,4.60036,2470.077,2020-7-20T12:03:01Z
2020-07-20T10:05:17Z,42.805,6.029,13.2988,4.60038,2470.063,2020-7-20T12:06:05Z
2020-07-20T10:08:21Z,42.805,6.029,13.2994,4.60010,2470.087,2020-7-20T12:09:08Z
2020-07-20T10:11:24Z,42.805,6.029,13.2983,4.60019,2470.11,2020-7-20T12:12:11Z
2020-07-20T10:14:27Z,42.805,6.029,13.2990,4.60053,2470.124,2020-7-20T12:15:14Z
2020-07-20T10:17:30Z,42.805,6.029,13.2988,4.60052,2470.1,2020-7-20T12:18:18Z
2020-07-20T10:20:34Z,42.805,6.029,13.3000,4.60040,2470.087,2020-7-20T12:21:21Z
2020-07-20T10:23:37Z,42.805,6.029,13.3028,4.60044,2470.1,2020-7-20T12:24:24Z
2020-07-20T10:26:40Z,42.805,6.029,13.3028,4.60059,2470.1,2020-7-20T12:27:27Z
2020-07-20T10:29:44Z,42.805,6.029,13.3031,4.60024,2470.124,2020-7-20T12:30:31Z
2020-07-20T10:32:47Z,42.805,6.029,13.3027,4.60057,2470.077,2020-7-20T12:33:34Z
2020-07-20T10:35:50Z,42.805,6.029,13.3019,4.60039,2470.063,2020-7-20T12:36:37Z
2020-07-20T10:38:53Z,42.805,6.029,13.3034,4.60057,2470.04,2020-7-20T12:39:41Z
2020-07-20T10:41:57Z,42.805,6.029,13.3029,4.60059,2470.063,2020-7-20T12:42:44Z
2020-07-20T10:45:00Z,42.805,6.029,13.3044,4.60031,2470.053,2020-7-20T12:45:47Z
2020-07-20T10:48:03Z,42.805,6.029,13.3021,4.60029,2470.087,2020-7-20T12:48:50Z
2020-07-20T10:51:06Z,42.805,6.029,13.3046,4.60087,2470.063,2020-7-20T12:51:54Z
2020-07-20T10:54:10Z,42.805,6.029,13.3043,4.60022,2470.087,2020-7-20T12:54:57Z
2020-07-20T10:57:13Z,42.805,6.029,13.3033,4.60051,2470.077,2020-7-20T12:58:00Z
2020-07-20T11:00:16Z,42.805,6.029,13.2992,4.60060,2470.063,2020-7-20T13:01:03Z
2020-07-20T11:03:19Z,42.805,6.029,13.2991,4.60064,2470.063,2020-7-20T13:04:07Z
2020-07-20T11:06:23Z,42.805,6.029,13.3006,4.60051,2470.017,2020-7-20T13:07:10Z
2020-07-20T11:09:26Z,42.805,6.029,13.3013,4.60056,2470.1,2020-7-20T13:10:13Z
2020-07-20T11:12:30Z,42.805,6.029,13.2983,4.60037,2470.04,2020-7-20T13:13:17Z
2020-07-20T11:15:33Z,42.805,6.029,13.2984,4.60003,2470.053,2020-7-20T13:16:20Z
2020-07-20T11:18:36Z,42.805,6.029,13.2994,4.60029,2470.017,2020-7-20T13:19:23Z
2020-07-20T11:21:39Z,42.805,6.029,13.2995,4.60044,2470.04,2020-7-20T13:22:27Z
2020-07-20T11:24:43Z,42.805,6.029,13.2997,4.60036,2470.053,2020-7-20T13:25:30Z
2020-07-20T11:27:46Z,42.805,6.029,13.2983,4.60049,2470.03,2020-7-20T13:28:33Z
2020-07-20T11:30:49Z,42.805,6.029,13.2997,4.60043,2470.007,2020-7-20T13:31:36Z
2020-07-20T11:33:52Z,42.805,6.029,13.3016,4.60014,2470.053,2020-7-20T13:34:39Z
2020-07-20T11:36:56Z,42.805,6.029,13.3015,4.60030,2470.017,2020-7-20T13:37:43Z
2020-07-20T11:39:59Z,42.805,6.029,13.3023,4.60039,2470.053,2020-7-20T13:40:46Z
2020-07-20T11:43:02Z,42.805,6.029,13.3011,4.60055,2470.077,2020-7-20T13:43:49Z
2020-07-20T11:46:05Z,42.805,6.029,13.3000,4.60026,2470.017,2020-7-20T13:46:53Z
2020-07-20T11:49:09Z,42.805,6.029,13.3012,4.60041,2470.017,2020-7-20T13:49:56Z
2020-07-20T11:52:12Z,42.805,6.029,13.3005,4.60041,2470.017,2020-7-20T13:52:59Z
2020-07-20T11:55:15Z,42.805,6.029,13.3000,4.60044,2470.003,2020-7-20T13:56:02Z
2020-07-20T11:58:18Z,42.805,6.029,13.3016,4.60079,2470.017,2020-7-20T13:59:06Z
2020-07-20T12:01:22Z,42.805,6.029,13.3019,4.60081,2470.04,2020-7-20T14:02:09Z
2020-07-20T12:04:25Z,42.805,6.029,13.2993,4.60044,2470.04,2020-7-20T14:05:12Z
2020-07-20T12:07:28Z,42.805,6.029,13.2994,4.60081,2470.017,2020-7-20T14:08:15Z
2020-07-20T12:10:31Z,42.805,6.029,13.2997,4.60052,2470.04,2020-7-20T14:11:19Z
2020-07-20T12:13:35Z,42.805,6.029,13.3006,4.60061,2470.017,2020-7-20T14:14:22Z
2020-07-20T12:16:38Z,42.805,6.029,13.3004,4.60032,2470.017,2020-7-20T14:17:25Z
2020-07-20T12:19:41Z,42.805,6.029,13.3004,4.60056,2469.97,2020-7-20T14:20:28Z
2020-07-20T12:22:44Z,42.805,6.029,13.3001,4.59999,2469.993,2020-7-20T14:23:31Z
2020-07-20T12:25:48Z,42.805,6.029,13.2996,4.59991,2470.03,2020-7-20T14:26:35Z
2020-07-20T12:28:51Z,42.805,6.029,13.2991,4.60031,2470.017,2020-7-20T14:29:38Z
2020-07-20T12:31:54Z,42.805,6.029,13.3004,4.60019,2470.03,2020-7-20T14:32:41Z
2020-07-20T12:34:57Z,42.805,6.029,13.3024,4.60062,2469.993,2020-7-20T14:35:44Z
2020-07-20T12:38:00Z,42.805,6.029,13.3008,4.60036,2470.03,2020-7-20T14:38:48Z
2020-07-20T12:41:04Z,42.805,6.029,13.3020,4.60026,2469.993,2020-7-20T14:41:51Z
2020-07-20T12:44:07Z,42.805,6.029,13.3021,4.60066,2470.03,2020-7-20T14:44:54Z
2020-07-20T12:47:10Z,42.805,6.029,13.3025,4.60045,2470.007,2020-7-20T14:47:57Z
2020-07-20T12:50:14Z,42.805,6.029,13.2990,4.60052,2470.04,2020-7-20T14:51:01Z
2020-07-20T12:53:17Z,42.805,6.029,13.3000,4.60049,2470.053,2020-7-20T14:54:04Z
2020-07-20T12:56:20Z,42.805,6.029,13.2996,4.60064,2470.03,2020-7-20T14:57:07Z
2020-07-20T12:59:23Z,42.805,6.029,13.3000,4.60057,2470.03,2020-7-20T15:00:10Z
2020-07-20T13:02:26Z,42.805,6.029,13.2995,4.60057,2470.03,2020-7-20T15:03:14Z
2020-07-20T13:05:30Z,42.805,6.029,13.3012,4.60005,2470.03,2020-7-20T15:06:17Z
2020-07-20T13:08:33Z,42.805,6.029,13.3008,4.60044,2469.993,2020-7-20T15:09:20Z
2020-07-20T13:11:36Z,42.805,6.029,13.2994,4.60053,2470.017,2020-7-20T15:12:23Z
2020-07-20T13:14:39Z,42.805,6.029,13.3012,4.60051,2470.03,2020-7-20T15:15:27Z
2020-07-20T13:17:43Z,42.805,6.029,13.3016,4.60041,2470.04,2020-7-20T15:18:30Z
2020-07-20T13:20:46Z,42.805,6.029,13.2990,4.60037,2469.993,2020-7-20T15:21:33Z
2020-07-20T13:23:49Z,42.805,6.029,13.2999,4.60035,2469.993,2020-7-20T15:24:36Z
2020-07-20T13:26:52Z,42.805,6.029,13.3004,4.60024,2470.03,2020-7-20T15:27:40Z
2020-07-20T13:29:56Z,42.805,6.029,13.2987,4.60047,2470.007,2020-7-20T15:30:43Z
2020-07-20T13:32:59Z,42.805,6.029,13.2996,4.60058,2470.017,2020-7-20T15:33:46Z
2020-07-20T13:36:02Z,42.805,6.029,13.3005,4.60045,2470.03,2020-7-20T15:36:49Z
2020-07-20T13:39:06Z,42.805,6.029,13.3003,4.60069,2470.03,2020-7-20T15:39:53Z
2020-07-20T13:42:09Z,42.805,6.029,13.3014,4.60048,2470.017,2020-7-20T15:42:56Z
2020-07-20T13:45:12Z,42.805,6.029,13.3009,4.60042,2469.984,2020-7-20T15:45:59Z
2020-07-20T13:48:15Z,42.805,6.029,13.3033,4.60041,2469.97,2020-7-20T15:49:03Z
2020-07-20T13:51:19Z,42.805,6.029,13.3042,4.60033,2469.993,2020-7-20T15:52:06Z
2020-07-20T13:54:22Z,42.805,6.029,13.3025,4.60052,2469.984,2020-7-20T15:55:09Z
2020-07-20T13:57:25Z,42.805,6.029,13.3019,4.60051,2470.007,2020-7-20T15:58:12Z
2020-07-20T14:00:28Z,42.805,6.029,13.3038,4.60066,2469.984,2020-7-20T16:01:15Z
2020-07-20T14:03:32Z,42.805,6.029,13.3007,4.60048,2470.04,2020-7-20T16:04:19Z
2020-07-20T14:06:35Z,42.805,6.029,13.3037,4.60010,2470.007,2020-7-20T16:07:22Z
2020-07-20T14:09:38Z,42.805,6.029,13.3000,4.60031,2470.03,2020-7-20T16:10:25Z
2020-07-20T14:12:41Z,42.805,6.029,13.2999,4.60032,2470.053,2020-7-20T16:13:29Z
2020-07-20T14:15:45Z,42.805,6.029,13.2996,4.60049,2470.017,2020-7-20T16:16:32Z
2020-07-20T14:18:48Z,42.805,6.029,13.2996,4.60073,2470.03,2020-7-20T16:19:35Z
2020-07-20T14:21:51Z,42.805,6.029,13.2991,4.60069,2470.017,2020-7-20T16:22:38Z
2020-07-20T14:24:54Z,42.805,6.029,13.3006,4.60046,2470.017,2020-7-20T16:25:41Z
2020-07-20T14:27:58Z,42.805,6.029,13.2993,4.60046,2470.053,2020-7-20T16:28:45Z
2020-07-20T14:31:01Z,42.805,6.029,13.3009,4.60058,2470.017,2020-7-20T16:31:48Z
2020-07-20T14:34:04Z,42.805,6.029,13.3012,4.60070,2470.053,2020-7-20T16:34:51Z
2020-07-20T14:37:07Z,42.805,6.029,13.3009,4.60036,2470.053,2020-7-20T16:37:55Z
2020-07-20T14:40:11Z,42.805,6.029,13.2991,4.60066,2470.017,2020-7-20T16:40:58Z
2020-07-20T14:43:14Z,42.805,6.029,13.2998,4.60050,2470.03,2020-7-20T16:44:01Z
2020-07-20T14:46:17Z,42.805,6.029,13.2991,4.60031,2470.053,2020-7-20T16:47:04Z
2020-07-20T14:49:20Z,42.805,6.029,13.3003,4.60084,2470.04,2020-7-20T16:50:07Z
2020-07-20T14:52:24Z,42.805,6.029,13.3017,4.60064,2470.04,2020-7-20T16:53:11Z
2020-07-20T14:55:27Z,42.805,6.029,13.3022,4.60026,2470.04,2020-7-20T16:56:14Z
2020-07-20T14:58:30Z,42.805,6.029,13.3013,4.60044,2470.017,2020-7-20T16:59:17Z
2020-07-20T15:01:33Z,42.805,6.029,13.2989,4.60058,2470.04,2020-7-20T17:02:21Z
2020-07-20T15:04:37Z,42.805,6.029,13.2993,4.60056,2470.063,2020-7-20T17:05:24Z
2020-07-20T15:07:40Z,42.805,6.029,13.3006,4.60014,2470.063,2020-7-20T17:08:27Z
2020-07-20T15:10:44Z,42.805,6.029,13.2991,4.60061,2470.053,2020-7-20T17:11:31Z
2020-07-20T15:13:47Z,42.805,6.029,13.2994,4.60052,2470.053,2020-7-20T17:14:34Z